Погода в Воскресенском Новом

Россия / Ивановская область     57°04′11″N   42°30′10″E
темп.,
°C
ветер,
м/с
пор.,
м/с
влажн.,
%
обл.,
%
осадки,
мм/ч
давл.,
гПа
погр.,
м
7 марта, вс
вс700:00−16юз23970 0.0 101226
03:00−16ююз34976 0.0 101071
06:00−14ю4109655 0.0 1006205
09:00−9ю7138978 0.1 1002623
12:00−6ю71292100 1.2 9981043
15:00−5ююз61193100 2.3 994911
18:00−5ю51095100 1.4 992607
21:00−6сз3979100 2.4 991322
8 марта, пн
пн800:00−10ссз2488100 0.0 99088
03:00−12зсз3681100 0.0 991100
06:00−13з3584100 0.0 99386
09:00−10з3692100 0.0 995249
12:00−6з238451 0.0 996567
15:00−5зсз238175 0.1 998742
18:00−9сз3691100 0.2 1000126
21:00−10с389499 0.3 1003387
9 марта, вт
вт900:00−13ссз379587 0.1 1006252
03:00−17ссз369777 0.1 1008116
06:00−20ссз369855 0.0 1010112
09:00−19ссз359466 0.0 1012253
12:00−14ссз348772 0.0 1013497
15:00−13ссз358686 0.1 1015694
18:00−16ссз3793100 0.1 1016310
21:00−20ссз3897100 0.1 1019219
10 марта, ср
ср1000:00−24ссз369881 0.0 1020119
03:00−27ссз359847 0.0 102193
06:00−29ссз35980 0.0 102385
09:00−25с35940 0.0 1025241
12:00−19ссз34830 0.0 1025469
15:00−16сз35790 0.0 1024643
18:00−19зсз37920 0.0 1024132
21:00−20зсз399431 0.0 1025238
11 марта, чт
чт1100:00−21зсз379389 0.0 1025158
03:00−22зсз379650 0.0 1025141
06:00−23з339515 0.0 102566
09:00−19з35878 0.0 1025201
12:00−12зюз35770 0.0 1024337
15:00−9юз24740 0.0 1023502
18:00−13ююв34870 0.0 102251
21:00−14ююв4119025 0.0 1021339